Location: Sungai Anya
(2.6167°N, 114.0500°E)
Time: 18:47:35
(UTC+00:00)

Feng Yun 1-1 Rocket - Pass Details

Date: 19 October 2021
Orbit: 830 x 933 km, 99.2° (Epoch: 07 December)

Event Time Altitude Azimuth Distance (km) Brightness Sun altitude
Rises 11:33:25 0° 168° (SSE) 3,368 7.3 -21.3°
Reaches altitude 10° 11:35:45 10° 168° (SSE) 2,436 6.6 -21.9°
Maximum altitude 11:41:09 87° 255° (WSW) 842 4.1 -23.2°
Drops below altitude 10° 11:46:37 10° 346° (NNW) 2,466 6.7 -24.5°
Sets 11:48:59 0° 347° (NNW) 3,413 7.4 -25.1°
